This is the latest recevied weather packets stored in our database for station/object W2GUX. If no packets are shown the sender has not sent any weather packets the latest 10 day(s).
| Time | Temp. | Humidity | Pressure | Rain* | Wind** | Luminosity | Snow |
|---|---|---|---|---|---|---|---|
| 1777910703 | 21.11° C | 27% | 1009.1 hPa | 0 mm | - | - | - |
| 1777910403 | 20.56° C | 27% | 1009.1 hPa | 0 mm | - | - | - |
| 1777910104 | 20.56° C | 27% | 1009.3 hPa | 0 mm | - | - | - |
| 1777909804 | 20.56° C | 27% | 1009.3 hPa | 0 mm | - | - | - |
| 1777909504 | 20.56° C | 28% | 1009.3 hPa | 0 mm | - | - | - |
| 1777909203 | 20.56° C | 26% | 1009.5 hPa | 0 mm | - | - | - |
| 1777908903 | 20.56° C | 26% | 1009.4 hPa | 0 mm | - | - | - |
| 1777908604 | 20.56° C | 27% | 1009.6 hPa | 0 mm | - | - | - |
| 1777908303 | 20° C | 26% | 1009.5 hPa | 0 mm | - | - | - |
| 1777908004 | 20° C | 27% | 1009.5 hPa | 0 mm | - | - | - |
| 1777907703 | 20° C | 27% | 1009.7 hPa | 0 mm | - | - | - |
| 1777907403 | 19.44° C | 28% | 1009.7 hPa | 0 mm | - | - | - |
| 1777907104 | 19.44° C | 28% | 1009.8 hPa | 0 mm | - | - | - |
| 1777906804 | 19.44° C | 28% | 1009.9 hPa | 0 mm | - | - | - |
| 1777906503 | 19.44° C | 27% | 1010 hPa | 0 mm | - | - | - |
| 1777906203 | 18.89° C | 30% | 1010.1 hPa | 0 mm | - | - | - |
| 1777905903 | 18.89° C | 29% | 1010.1 hPa | 0 mm | - | - | - |
| 1777905603 | 18.89° C | 30% | 1010.2 hPa | 0 mm | - | - | - |
| 1777905304 | 18.89° C | 30% | 1010.2 hPa | 0 mm | - | - | - |
| 1777905004 | 18.33° C | 28% | 1010.2 hPa | 0 mm | - | - | - |
| 1777904703 | 18.33° C | 30% | 1010.3 hPa | 0 mm | - | - | - |
| 1777904404 | 17.78° C | 31% | 1010.2 hPa | 0 mm | - | - | - |
| 1777904104 | 17.78° C | 32% | 1010.3 hPa | 0 mm | - | - | - |
| 1777903804 | 17.78° C | 31% | 1010.3 hPa | 0 mm | - | - | - |
| 1777903503 | 17.22° C | 33% | 1010.3 hPa | 0 mm | - | - | - |
* Rain latest hour (hover to see other rain measurements)
** Current wind speed in m/s (hover to see current wind gust speed)